[[{"header":{"parameterUnit":"m.s-1","parameterCategory":1,"la1":30.2991,"la2":30.254,"lo1":-89.0895,"lo2":-89.0444,"dy":0.0017,"dx":0.0017,"nx":28,"ny":28,"refTime":"2025-07-03T03:00:00:Z","depth":0,"parameterNumber":2,"parameterNumberName":"U-component_of_WINDS"},"data":[0,0,0,0,0,0,0,0,0,0,0,0,0,0,0,0,0,0,0,0,0,0,0,0,0,0,0,0,0,0,0,0,0,0,0,0,0,0,0,0,0,0,0,0,0,0,0,0,0,0,0,0,0,0,0,0,0,0,0.4591,0.4592,0,0.469,0.4691,0.4692,0.4718,0.4717,0.4717,0.4716,0.482,0.4823,0.4827,0,0,0,0,0,0,0,0,0,0,0,0,0,0.4426,0.4429,0.459,0.4592,0.4593,0.469,0.4691,0.4693,0.4718,0.4717,0.4717,0.4716,0.4819,0.4823,0.4827,0,0,0,0,0,0,0,0,0,0,0,0,0,0.4509,0.443,0.459,0.4617,0.4621,0.4689,0.4691,0.4693,0.4718,0.4717,0.4716,0.4716,0.4818,0.4823,0.4828,0.4877,0,0,0.4843,0.4845,0,0,0,0,0,0,0,0,0.4504,0.4515,0.4612,0.4616,0.462,0.4691,0.4671,0.4755,0.4718,0.4681,0.4716,0.4715,0.4778,0.4786,0.4807,0.4882,0.4887,0.4843,0.4846,0.4849,0.485,0,0,0,0,0,0,0,0.4499,0.4511,0.463,0.4614,0.4618,0.4626,0.4636,0.4687,0.4734,0.4684,0.4687,0.4698,0.478,0.4802,0.481,0.4888,0.4843,0.4848,0.4851,0.4853,0.5011,0.5013,0,0,0,0,0,0,0.4488,0.4506,0.4627,0.4633,0.4558,0.4629,0.4641,0.4669,0.4733,0.4742,0.4699,0.4699,0.4794,0.4804,0.4813,0.4877,0.4849,0.4853,0.4856,0.501,0.5012,0.5013,0,0,0,0,0,0,0.4484,0.4498,0.4623,0.457,0.4586,0.4633,0.4664,0.4671,0.4693,0.4744,0.4753,0.4713,0.4794,0.4806,0.4862,0.4881,0.4856,0.486,0.5009,0.5011,0.5012,0.5005,0,0,0,0,0,0,0.4479,0.4497,0.4515,0.457,0.4589,0.4668,0.4665,0.4674,0.4702,0.4703,0.4759,0.4768,0.4794,0.4854,0.4867,0.4888,0.4864,0.5007,0.501,0.5012,0.5003,0.5006,0.5008,0,0,0,0,0,0.4473,0.4509,0.4516,0.453,0.4613,0.4669,0.468,0.4709,0.4703,0.4723,0.4756,0.4766,0.4877,0.4859,0.4874,0.4897,0.5006,0.5009,0.5012,0.5002,0.5005,0.5008,0,0,0,0,0,0,0.4455,0.4517,0.4525,0.4579,0.4619,0.4673,0.4699,0.4711,0.4753,0.4753,0.4787,0.48,0.4853,0.4881,0.486,0.4949,0.4942,0.4947,0.493,0.4933,0.4935,0.4928,0.4868,0,0,0,0,0,0.4458,0.4497,0.4549,0.4592,0.4611,0.4652,0.4677,0.4696,0.4739,0.4756,0.4792,0.4834,0.4879,0.4907,0.4951,0.5007,0.5021,0.503,0.5033,0.5034,0.5039,0.5073,0.5079,0.5022,0.5022,0.5022,0,0,0.4463,0.4501,0.4524,0.4589,0.4622,0.4664,0.4666,0.4709,0.4741,0.4763,0.4817,0.4846,0.4895,0.4951,0.4978,0.4976,0.5058,0.5038,0.5039,0.5043,0.5077,0.5082,0.5087,0.5024,0.5023,0.5023,0,0,0.4494,0.4526,0.4567,0.46,0.4649,0.4676,0.4686,0.4739,0.4759,0.4814,0.4832,0.487,0.4946,0.4981,0.5008,0.5054,0.5066,0.5067,0.508,0.5113,0.5118,0.5122,0.514,0.5146,0.5072,0.5072,0.5072,0,0.4495,0.4557,0.4586,0.4629,0.4658,0.4679,0.4722,0.4753,0.4814,0.4834,0.483,0.4927,0.4961,0.5027,0.5039,0.5059,0.5073,0.5062,0.5114,0.5119,0.5123,0.5141,0.5148,0.5072,0.5072,0.5072,0.5072,0,0.4556,0.4599,0.4626,0.4685,0.4717,0.4759,0.4796,0.4825,0.4842,0.4869,0.4927,0.4969,0.5022,0.5039,0.5055,0.5108,0.5105,0.5107,0.5101,0.5128,0.5146,0.5153,0.5072,0.5072,0.5072,0.5072,0,0,0.4579,0.4654,0.4663,0.4691,0.4748,0.4783,0.4827,0.4879,0.4904,0.4946,0.4985,0.5049,0.5052,0.5083,0.5104,0.5132,0.5169,0.5132,0.5133,0.5138,0.5232,0.5231,0.5238,0.5176,0.5178,0.5179,0.5228,0,0.4618,0.4697,0.4725,0.4791,0.4832,0.4854,0.4893,0.4933,0.496,0.5,0.5031,0.5076,0.5076,0.5095,0.5124,0.5158,0.5188,0.5155,0.5215,0.5217,0.5203,0.5247,0.5245,0.529,0.5235,0.5236,0.5237,0,0.4675,0.4718,0.4787,0.4841,0.4859,0.4893,0.4944,0.4982,0.5028,0.5046,0.5082,0.5101,0.515,0.5139,0.5208,0.5185,0.5211,0.5232,0.5234,0.5242,0.5229,0.5257,0.5304,0.5312,0.5248,0.5247,0.5246,0,0.4686,0.4761,0.4813,0.4836,0.4899,0.4923,0.4951,0.4996,0.5026,0.5071,0.5091,0.5141,0.5169,0.5208,0.524,0.5229,0.5307,0.5298,0.5325,0.5324,0.5341,0.5339,0.5394,0.5355,0.5355,0.5355,0.5355,0,0.4728,0.4771,0.482,0.4852,0.49,0.4933,0.498,0.5009,0.505,0.5089,0.5111,0.5147,0.5187,0.523,0.5255,0.531,0.5321,0.5339,0.5345,0.5338,0.5336,0.5356,0.5355,0.5357,0.5356,0.5356,0.5356,0,0.475,0.4784,0.4842,0.4898,0.4913,0.4946,0.4994,0.5027,0.5055,0.5105,0.5119,0.5164,0.5215,0.5251,0.5316,0.5334,0.5393,0.5398,0.5377,0.5381,0.5405,0.5403,0.5477,0.5489,0.544,0.544,0.5441,0,0.4775,0.4808,0.4867,0.4895,0.4922,0.4966,0.4997,0.5031,0.5062,0.5119,0.5145,0.5197,0.5241,0.5322,0.5362,0.5412,0.542,0.5443,0.5428,0.542,0.5423,0.5421,0.5426,0.5445,0.5446,0.5446,0.5446,0,0.4817,0.4832,0.4875,0.4925,0.4961,0.5002,0.5043,0.5065,0.5106,0.5141,0.5193,0.5227,0.5295,0.5347,0.5402,0.5432,0.5447,0.545,0.5459,0.5452,0.5439,0.5449,0.5385,0.5449,0.5448,0.5448,0.5448,0.5448,0.4842,0.4873,0.492,0.4968,0.5002,0.5041,0.5075,0.5108,0.5152,0.5209,0.5226,0.5281,0.5329,0.5404,0.5435,0.5479,0.5478,0.5491,0.5494,0.5497,0.5498,0.5431,0.5489,0.5489,0.5489,0.5489,0.5489,0,0.4886,0.4918,0.4961,0.5019,0.5057,0.5066,0.5113,0.5145,0.5192,0.5235,0.5278,0.5339,0.5391,0.5434,0.5488,0.5515,0.5523,0.5528,0.5527,0.5534,0.5495,0.5482,0.5521,0.5521,0.5521,0.5521,0.5521,0.5521,0.4914,0.4968,0.4989,0.5061,0.5092,0.5146,0.5172,0.5208,0.5243,0.531,0.5352,0.538,0.5424,0.5481,0.553,0.5541,0.5561,0.5564,0.5578,0.554,0.5537,0.5533,0.5522,0.5568,0.5568,0.5614,0.5614,0.5615]},{"header":{"parameterUnit":"m.s-1","parameterCategory":1,"la1":30.2991,"la2":30.254,"lo1":-89.0895,"lo2":-89.0444,"dy":0.0017,"dx":0.0017,"nx":28,"ny":28,"refTime":"2025-07-03T03:00:00:Z","depth":0,"parameterNumber":3,"parameterNumberName":"V-component_of_WINDS"},"data":[0,0,0,0,0,0,0,0,0,0,0,0,0,0,0,0,0,0,0,0,0,0,0,0,0,0,0,0,0,0,0,0,0,0,0,0,0,0,0,0,0,0,0,0,0,0,0,0,0,0,0,0,0,0,0,0,0,0,-1.5054,-1.5053,0,-1.498,-1.4979,-1.4978,-1.4974,-1.4975,-1.4976,-1.4977,-1.4899,-1.4896,-1.4893,0,0,0,0,0,0,0,0,0,0,0,0,0,-1.5193,-1.519,-1.5054,-1.5053,-1.5052,-1.498,-1.4979,-1.4978,-1.4974,-1.4975,-1.4976,-1.4977,-1.49,-1.4896,-1.4893,0,0,0,0,0,0,0,0,0,0,0,0,0,-1.5127,-1.519,-1.5054,-1.5041,-1.504,-1.498,-1.4979,-1.4978,-1.4974,-1.4975,-1.4976,-1.4978,-1.4901,-1.4897,-1.4892,-1.484,0,0,-1.4879,-1.4877,0,0,0,0,0,0,0,0,-1.5131,-1.5122,-1.5044,-1.5042,-1.504,-1.4988,-1.4999,-1.4931,-1.4973,-1.4999,-1.4977,-1.4978,-1.4927,-1.4921,-1.4904,-1.4836,-1.4833,-1.4879,-1.4876,-1.4874,-1.4873,0,0,0,0,0,0,0,-1.5135,-1.5125,-1.5024,-1.5043,-1.5041,-1.504,-1.5032,-1.4986,-1.4956,-1.4997,-1.4996,-1.4987,-1.4926,-1.4908,-1.4902,-1.4832,-1.4879,-1.4875,-1.4872,-1.4871,-1.4722,-1.472,0,0,0,0,0,0,-1.5142,-1.5129,-1.5027,-1.5022,-1.509,-1.5036,-1.5027,-1.5003,-1.4957,-1.4951,-1.4986,-1.4988,-1.4915,-1.4907,-1.4899,-1.4838,-1.4874,-1.487,-1.4868,-1.4723,-1.4721,-1.472,0,0,0,0,0,0,-1.5145,-1.5133,-1.503,-1.5075,-1.5062,-1.5033,-1.5005,-1.5001,-1.4983,-1.4949,-1.4944,-1.4973,-1.4916,-1.4905,-1.4856,-1.4835,-1.4868,-1.4864,-1.4725,-1.4723,-1.4721,-1.4712,0,0,0,0,0,0,-1.5149,-1.5134,-1.5114,-1.5075,-1.506,-1.4987,-1.5004,-1.4998,-1.4976,-1.4976,-1.4936,-1.493,-1.4916,-1.4862,-1.4852,-1.4829,-1.4861,-1.4726,-1.4724,-1.4721,-1.4714,-1.471,-1.4707,0,0,0,0,0,-1.5154,-1.5113,-1.5112,-1.51,-1.5033,-1.4986,-1.4977,-1.4962,-1.4974,-1.4953,-1.4933,-1.4931,-1.4839,-1.4857,-1.4845,-1.4821,-1.4728,-1.4725,-1.4722,-1.4716,-1.4711,-1.4707,0,0,0,0,0,0,-1.5147,-1.5107,-1.5107,-1.5051,-1.5022,-1.4985,-1.4958,-1.4956,-1.4923,-1.4925,-1.4907,-1.4898,-1.485,-1.483,-1.4851,-1.477,-1.4785,-1.4779,-1.4785,-1.478,-1.4776,-1.4782,-1.4857,0,0,0,0,0,-1.514,-1.5105,-1.5071,-1.5026,-1.5012,-1.4988,-1.4966,-1.4958,-1.4927,-1.4914,-1.4889,-1.4859,-1.4824,-1.48,-1.4765,-1.4712,-1.4704,-1.469,-1.4686,-1.4683,-1.4678,-1.4652,-1.4646,-1.471,-1.471,-1.471,0,0,-1.5123,-1.5097,-1.5075,-1.5024,-1.5,-1.4966,-1.4977,-1.4938,-1.4913,-1.4908,-1.4861,-1.4842,-1.4807,-1.4756,-1.4732,-1.4739,-1.466,-1.4679,-1.4677,-1.4674,-1.4648,-1.4642,-1.4637,-1.4708,-1.4708,-1.4708,0,0,-1.5075,-1.5051,-1.5012,-1.4989,-1.4954,-1.4939,-1.493,-1.4895,-1.4883,-1.4835,-1.4832,-1.4801,-1.4739,-1.4716,-1.4696,-1.4644,-1.4643,-1.4633,-1.4613,-1.4588,-1.4583,-1.4579,-1.4562,-1.4557,-1.4629,-1.4629,-1.4629,0,-1.5058,-1.5005,-1.4992,-1.4955,-1.4933,-1.493,-1.4891,-1.4869,-1.4825,-1.481,-1.4818,-1.4744,-1.472,-1.4665,-1.4653,-1.4636,-1.4627,-1.4638,-1.4585,-1.458,-1.4576,-1.456,-1.4554,-1.4628,-1.4628,-1.4628,-1.4628,0,-1.4988,-1.4952,-1.4925,-1.4884,-1.486,-1.4822,-1.4804,-1.4781,-1.4775,-1.476,-1.4714,-1.4686,-1.4647,-1.4633,-1.4626,-1.4579,-1.4584,-1.4589,-1.4603,-1.4569,-1.4555,-1.4548,-1.4627,-1.4627,-1.4627,-1.4628,0,0,-1.4931,-1.4887,-1.4877,-1.4861,-1.4824,-1.4796,-1.4759,-1.4723,-1.4705,-1.4675,-1.4645,-1.4595,-1.4601,-1.4578,-1.4569,-1.4547,-1.4511,-1.4554,-1.4553,-1.4549,-1.4461,-1.4458,-1.4452,-1.451,-1.4509,-1.4508,-1.4464,0,-1.4881,-1.4816,-1.4805,-1.4749,-1.4717,-1.4715,-1.4684,-1.4658,-1.4644,-1.4615,-1.4599,-1.4565,-1.4574,-1.4561,-1.4538,-1.452,-1.4493,-1.4523,-1.4484,-1.4482,-1.4494,-1.4443,-1.444,-1.44,-1.4458,-1.4457,-1.4456,0,-1.4812,-1.4784,-1.4725,-1.4697,-1.4683,-1.4655,-1.4623,-1.4595,-1.4568,-1.4559,-1.4536,-1.4531,-1.4495,-1.4511,-1.4462,-1.4482,-1.4466,-1.4455,-1.4453,-1.4449,-1.4468,-1.444,-1.4386,-1.4381,-1.4447,-1.4447,-1.4448,0,-1.478,-1.4727,-1.4686,-1.4671,-1.4636,-1.4617,-1.4602,-1.4576,-1.4556,-1.4528,-1.4516,-1.4483,-1.4465,-1.4441,-1.4428,-1.444,-1.4381,-1.4395,-1.4374,-1.4374,-1.4361,-1.4362,-1.4306,-1.4349,-1.4349,-1.4349,-1.4349,0,-1.4725,-1.469,-1.4671,-1.4646,-1.4608,-1.4596,-1.4558,-1.4543,-1.4521,-1.4494,-1.4489,-1.4464,-1.4447,-1.442,-1.4409,-1.4372,-1.4363,-1.4357,-1.4354,-1.4358,-1.4359,-1.4347,-1.435,-1.4347,-1.4348,-1.4348,-1.4348,0,-1.4682,-1.4668,-1.4624,-1.4596,-1.4588,-1.4562,-1.4538,-1.4514,-1.4502,-1.4467,-1.4459,-1.4438,-1.4407,-1.4391,-1.435,-1.4344,-1.4302,-1.4301,-1.4312,-1.4311,-1.4292,-1.4295,-1.4226,-1.4218,-1.4265,-1.4265,-1.4264,0,-1.4649,-1.4622,-1.4593,-1.4575,-1.456,-1.4531,-1.4512,-1.45,-1.4481,-1.445,-1.4431,-1.4399,-1.4373,-1.4322,-1.4304,-1.4274,-1.4273,-1.4252,-1.4269,-1.4274,-1.4275,-1.4278,-1.4276,-1.4249,-1.4248,-1.4248,-1.4247,0,-1.4592,-1.4588,-1.4561,-1.4532,-1.451,-1.4487,-1.4464,-1.4449,-1.4434,-1.4413,-1.4381,-1.4361,-1.4322,-1.4292,-1.4262,-1.4246,-1.4245,-1.4243,-1.4236,-1.424,-1.4248,-1.4246,-1.4305,-1.4244,-1.4244,-1.4245,-1.4245,-1.4245,-1.4554,-1.4532,-1.4509,-1.448,-1.4463,-1.4442,-1.442,-1.4406,-1.438,-1.4348,-1.4343,-1.431,-1.4286,-1.4246,-1.423,-1.4205,-1.4209,-1.42,-1.4198,-1.4196,-1.4196,-1.4252,-1.4199,-1.4199,-1.4199,-1.4199,-1.4199,0,-1.4499,-1.4486,-1.4459,-1.4429,-1.4407,-1.4409,-1.4385,-1.4367,-1.4338,-1.4317,-1.4293,-1.4258,-1.423,-1.4211,-1.4182,-1.4166,-1.4165,-1.4159,-1.416,-1.4157,-1.4192,-1.4201,-1.416,-1.416,-1.416,-1.416,-1.416,-1.416,-1.4468,-1.4432,-1.4425,-1.4381,-1.4368,-1.4337,-1.4323,-1.4305,-1.4289,-1.4251,-1.4228,-1.4216,-1.4196,-1.4167,-1.4142,-1.4137,-1.4127,-1.4122,-1.4117,-1.415,-1.4154,-1.4158,-1.4167,-1.4119,-1.4119,-1.4085,-1.4084,-1.4084]}]]